GW0392 Weather Reports


time (UTC)temp
C
wind
direction
speed
KPH
gust
KPH
rain 1hr
cm
rain 24hr
cm
rain mn
cm
humidity
%
barometer
mb
20260504081708 7 226 0.0 0.0 0.00 0.00 0.00 94 1017.2
20260504081205 7 226 0.0 0.0 0.00 0.00 0.00 94 1017.3
20260504080701 7 226 0.0 0.0 0.00 0.00 0.00 95 1017.4
20260504080157 7 226 0.0 0.0 0.00 0.00 0.00 95 1017.1
20260504070125 7 223 0.0 0.0 0.00 0.00 0.00 92 1017.3
20260504050514 8 226 0.0 0.0 0.00 0.00 0.00 88 1018.1
20260504050011 8 226 0.0 0.0 0.00 0.00 0.00 87 1018.1
20260504045508 8 227 0.0 0.0 0.00 0.00 0.00 87 1017.9
20260504045003 8 227 0.0 0.0 0.00 0.00 0.00 87 1018.1
20260504044501 8 227 0.0 0.0 0.00 0.00 0.00 87 1017.9
20260504043958 8 227 0.0 0.0 0.00 0.00 0.00 86 1017.9
20260504043455 8 227 0.0 0.0 0.00 0.00 0.00 86 1018.0
20260504042952 8 226 0.0 0.0 0.00 0.00 0.00 85 1018.1
20260504042448 9 227 0.0 0.0 0.00 0.00 0.00 85 1017.9
20260504041945 9 226 0.0 0.0 0.00 0.00 0.00 84 1018.0
20260504041441 10 227 0.0 0.0 0.00 0.00 0.00 84 1018.1
20260504040937 10 227 0.0 0.0 0.00 0.00 0.00 84 1018.2
20260504040436 10 227 0.0 0.0 0.00 0.00 0.00 83 1018.0
20260504035931 10 226 0.0 0.0 0.00 0.00 0.00 82 1018.2
20260504035429 10 227 0.0 0.0 0.00 0.00 0.00 83 1018.1
20260504034925 10 226 0.0 0.0 0.00 0.00 0.00 82 1018.1
20260504034423 10 227 0.0 0.0 0.00 0.00 0.00 83 1017.9
20260504033920 10 226 0.0 0.0 0.00 0.00 0.00 82 1018.3
20260504033418 10 227 0.0 0.0 0.00 0.00 0.00 82 1018.1
20260504032914 10 227 0.0 0.0 0.00 0.00 0.00 80 1018.0
20260504032411 10 226 0.0 0.0 0.00 0.00 0.00 81 1017.9
20260504031908 10 226 0.0 0.0 0.00 0.00 0.00 81 1018.0
20260504031405 10 226 0.0 0.0 0.00 0.00 0.00 81 1017.9
20260504030901 10 226 0.0 0.0 0.00 0.00 0.00 80 1018.2
20260504030359 10 227 0.0 0.0 0.00 0.00 0.00 81 1018.0
20260504025854 10 227 0.0 0.0 0.00 0.00 0.00 80 1017.9
20260504025352 10 227 0.0 0.0 0.00 0.00 0.00 79 1017.9
20260504024848 11 225 0.0 0.0 0.00 0.00 0.00 78 1017.8
20260504024345 11 226 0.0 0.0 0.00 0.00 0.00 79 1017.8
20260504023842 11 226 0.0 0.0 0.00 0.00 0.00 77 1017.4
20260504023339 11 226 0.0 0.0 0.00 0.00 0.00 77 1017.4
20260504022834 11 221 0.0 0.0 0.00 0.00 0.00 76 1017.4
20260504022331 11 215 0.0 0.0 0.00 0.00 0.00 75 1017.5
20260504021828 11 222 0.0 0.0 0.00 0.00 0.00 76 1017.7
20260504021325 11 221 0.0 0.0 0.00 0.00 0.00 77 1017.2
20260504020822 11 221 0.0 0.0 0.00 0.00 0.00 78 1017.4
20260504020319 11 222 0.0 0.0 0.00 0.00 0.00 77 1017.7
20260504015815 11 222 0.0 0.0 0.00 0.00 0.00 77 1017.3
20260504015311 11 222 0.0 0.0 0.00 0.00 0.00 77 1017.3
20260504014808 11 222 0.0 0.0 0.00 0.00 0.00 79 1017.3
20260504014303 11 222 0.0 0.0 0.00 0.00 0.00 78 1017.3
20260504013801 11 222 0.0 0.0 0.00 0.00 0.00 78 1017.3
20260504013259 12 222 0.0 0.0 0.00 0.00 0.00 76 1017.1
20260504012755 12 222 0.0 0.0 0.00 0.00 0.00 76 1017.2
20260504012253 12 223 0.0 0.0 0.00 0.00 0.00 75 1017.1
20260504011750 12 223 0.0 0.0 0.00 0.00 0.00 74 1017.1
20260504011247 12 223 0.0 0.0 0.00 0.00 0.00 73 1017.0
20260504010743 12 223 0.0 0.0 0.00 0.00 0.00 73 1016.7
20260504010238 13 223 0.0 0.0 0.00 0.00 0.00 71 1016.7
20260504005735 13 223 0.0 0.0 0.00 0.00 0.00 70 1016.9
20260504005232 13 223 0.0 0.0 0.00 0.00 0.00 69 1016.9
20260504004730 13 223 0.0 0.0 0.00 0.00 0.00 69 1016.8
20260504004227 13 223 0.0 0.0 0.00 0.00 0.00 69 1016.6
20260504003723 14 226 0.0 0.0 0.00 0.00 0.00 67 1016.7
20260504003221 15 223 0.0 0.0 0.00 0.00 0.00 67 1016.7
20260504002717 15 230 0.0 0.0 0.00 0.00 0.00 63 1016.5
20260504002214 15 230 0.0 0.0 0.00 0.00 0.00 60 1016.6
20260504001712 16 230 0.0 0.0 0.00 0.00 0.00 61 1016.6
20260504001209 16 230 0.0 0.0 0.00 0.00 0.00 57 1016.9
20260504000705 16 230 0.0 0.0 0.00 0.00 0.00 57 1016.8
20260504000204 17 230 0.0 0.0 0.00 0.00 0.00 54 1016.8
20260503235701 17 231 0.0 0.0 0.00 0.00 0.00 52 1016.7
20260503235157 17 230 0.0 0.0 0.00 0.00 0.00 52 1016.8
20260503234655 17 231 0.0 0.0 0.00 0.00 0.00 52 1016.7
20260503234153 18 229 0.0 0.0 0.00 0.00 0.00 52 1016.7
20260503233649 18 222 1.6 3.2 0.00 0.00 0.00 45 1016.8
20260503233145 18 220 0.0 0.0 0.00 0.00 0.00 46 1016.5
20260503232642 19 223 0.0 0.0 0.00 0.00 0.00 45 1016.6
20260503232140 19 223 0.0 0.0 0.00 0.00 0.00 45 1016.5
20260503231638 19 215 1.6 3.2 0.00 0.00 0.00 44 1016.7
20260503231134 19 225 0.0 1.6 0.00 0.00 0.00 45 1016.7
20260503230631 19 216 0.0 8.0 0.00 0.00 0.00 44 1016.7
20260503230128 19 221 0.0 1.6 0.00 0.00 0.00 44 1016.7
20260503225626 19 197 1.6 3.2 0.00 0.00 0.00 42 1016.9
20260503225125 20 200 4.8 4.8 0.00 0.00 0.00 43 1016.9
20260503224623 20 227 0.0 3.2 0.00 0.00 0.00 43 1016.7
20260503224121 20 196 1.6 3.2 0.00 0.00 0.00 43 1016.8
20260503223618 19 220 1.6 3.2 0.00 0.00 0.00 44 1017.0
20260503223114 20 225 0.0 1.6 0.00 0.00 0.00 43 1016.7
20260503222612 20 181 0.0 1.6 0.00 0.00 0.00 42 1016.9
20260503222109 20 233 0.0 0.0 0.00 0.00 0.00 43 1017.1
20260503221608 20 220 0.0 1.6 0.00 0.00 0.00 44 1017.0
20260503221105 20 233 1.6 3.2 0.00 0.00 0.00 43 1017.2
20260503220601 20 231 0.0 0.0 0.00 0.00 0.00 44 1017.3
20260503220058 20 209 3.2 3.2 0.00 0.00 0.00 42 1017.1
20260503215555 20 219 0.0 3.2 0.00 0.00 0.00 42 1017.0
20260503215052 20 231 0.0 1.6 0.00 0.00 0.00 42 1016.9
20260503214550 20 236 1.6 1.6 0.00 0.00 0.00 43 1016.9
20260503214046 20 216 1.6 4.8 0.00 0.00 0.00 42 1017.1
20260503213545 20 226 1.6 1.6 0.00 0.00 0.00 42 1017.3
20260503213041 20 144 4.8 11.3 0.00 0.00 0.00 40 1017.4
20260503212538 20 194 4.8 4.8 0.00 0.00 0.00 42 1017.3
20260503212036 20 224 0.0 0.0 0.00 0.00 0.00 43 1017.3
20260503211533 20 216 1.6 3.2 0.00 0.00 0.00 41 1017.4
20260503211028 19 181 3.2 8.0 0.00 0.00 0.00 41 1017.7
20260503210525 20 167 3.2 9.7 0.00 0.00 0.00 40 1017.8
20260503210021 20 220 0.0 1.6 0.00 0.00 0.00 43 1017.7
20260503205518 20 227 1.6 3.2 0.00 0.00 0.00 43 1018.1
20260503205014 19 192 3.2 11.3 0.00 0.00 0.00 42 1017.8
20260503204512 19 198 3.2 9.7 0.00 0.00 0.00 43 1018.1
20260503204008 19 220 1.6 3.2 0.00 0.00 0.00 41 1018.2
20260503203506 20 193 1.6 3.2 0.00 0.00 0.00 41 1018.2
20260503203002 20 219 0.0 8.0 0.00 0.00 0.00 45 1018.2
20260503202500 19 229 0.0 3.2 0.00 0.00 0.00 42 1018.2
20260503201958 20 226 3.2 3.2 0.00 0.00 0.00 43 1018.4
20260503201456 19 193 3.2 8.0 0.00 0.00 0.00 42 1018.5
20260503200953 20 222 1.6 3.2 0.00 0.00 0.00 41 1018.7
20260503200449 20 215 1.6 1.6 0.00 0.00 0.00 42 1018.5
20260503195946 18 235 1.6 4.8 0.00 0.00 0.00 44 1018.8
20260503195443 19 208 6.4 14.5 0.00 0.00 0.00 41 1019.1
20260503194940 19 278 3.2 3.2 0.00 0.00 0.00 41 1018.8
20260503194437 18 207 4.8 11.3 0.00 0.00 0.00 41 1019.2
20260503193932 19 140 4.8 8.0 0.00 0.00 0.00 41 1019.1
20260503193428 19 228 1.6 4.8 0.00 0.00 0.00 38 1019.3
20260503192923 19 348 1.6 4.8 0.00 0.00 0.00 37 1019.4
20260503192420 20 224 1.6 3.2 0.00 0.00 0.00 38 1019.4
20260503191916 19 213 3.2 3.2 0.00 0.00 0.00 37 1019.4
20260503191414 19 224 1.6 3.2 0.00 0.00 0.00 38 1019.4
20260503190910 19 230 0.0 4.8 0.00 0.00 0.00 36 1019.7
20260503190408 20 205 0.0 1.6 0.00 0.00 0.00 38 1019.5
20260503185904 19 233 0.0 4.8 0.00 0.00 0.00 37 1019.7
20260503185400 19 141 4.8 9.7 0.00 0.00 0.00 37 1019.8
20260503184900 19 228 0.0 4.8 0.00 0.00 0.00 38 1020.0
20260503184356 19 196 3.2 8.0 0.00 0.00 0.00 38 1020.0
20260503183852 19 221 1.6 1.6 0.00 0.00 0.00 43 1020.0
20260503183349 18 228 0.0 8.0 0.00 0.00 0.00 37 1020.1
20260503182847 19 229 1.6 9.7 0.00 0.00 0.00 37 1020.0
20260503182346 19 218 1.6 3.2 0.00 0.00 0.00 40 1020.0
20260503181842 18 174 1.6 3.2 0.00 0.00 0.00 42 1020.0
20260503181339 18 172 3.2 8.0 0.00 0.00 0.00 40 1020.3
20260503180836 18 225 3.2 4.8 0.00 0.00 0.00 43 1020.2
20260503180334 17 253 3.2 3.2 0.00 0.00 0.00 42 1020.1
20260503175830 18 231 0.0 1.6 0.00 0.00 0.00 41 1020.2
20260503175328 18 223 0.0 3.2 0.00 0.00 0.00 46 1020.4
20260503174823 17 188 4.8 11.3 0.00 0.00 0.00 46 1020.5
20260503174322 18 110 6.4 12.9 0.00 0.00 0.00 45 1020.4
20260503173817 17 227 0.0 3.2 0.00 0.00 0.00 46 1020.5
20260503173313 17 212 0.0 4.8 0.00 0.00 0.00 46 1021.0
20260503172810 18 176 4.8 4.8 0.00 0.00 0.00 46 1020.9
20260503172308 17 228 0.0 1.6 0.00 0.00 0.00 49 1020.9
20260503171804 17 230 0.0 3.2 0.00 0.00 0.00 49 1021.2
20260503171301 17 250 1.6 3.2 0.00 0.00 0.00 48 1021.3
20260503170758 17 240 0.0 3.2 0.00 0.00 0.00 48 1021.3
20260503170254 16 229 1.6 4.8 0.00 0.00 0.00 50 1021.5
20260503160217 15 216 4.8 4.8 0.00 0.00 0.00 51 1022.2
20260503150647 14 234 1.6 4.8 0.00 0.00 0.00 55 1022.3
20260503150143 14 226 0.0 1.6 0.00 0.00 0.00 56 1022.2
20260503140107 12 235 0.0 1.6 0.00 0.00 0.00 65 1022.4
20260503131036 10 229 0.0 1.6 0.00 0.00 0.00 88 1022.1
20260503130534 9 222 0.0 0.0 0.00 0.00 0.00 87 1022.0
20260503110424 6 223 0.0 0.0 0.00 0.00 0.00 97 1021.2